TimeCST,TemperatureF,Dew PointF,Humidity,Sea Level PressureIn,VisibilityMPH,Wind Direction,Wind SpeedMPH,Gust SpeedMPH,PrecipitationIn,Events,Conditions,WindDirDegrees,DateUTC
12:53 AM,30.9,25.0,79,30.08,10.0,WNW,3.5,-,N/A,,Clear,290,2013-02-23 06:53:00
1:53 AM,30.0,25.0,82,30.07,10.0,WNW,3.5,-,N/A,,Clear,300,2013-02-23 07:53:00
2:53 AM,28.9,24.1,82,30.06,10.0,Calm,Calm,-,N/A,,Clear,0,2013-02-23 08:53:00
3:53 AM,28.0,24.1,85,30.05,10.0,WNW,3.5,-,N/A,,Clear,300,2013-02-23 09:53:00
4:53 AM,27.0,21.9,81,30.05,10.0,North,8.1,-,N/A,,Clear,350,2013-02-23 10:53:00
5:53 AM,27.0,21.9,81,30.06,10.0,North,3.5,-,N/A,,Clear,10,2013-02-23 11:53:00
6:53 AM,27.0,21.9,81,30.06,10.0,North,3.5,-,N/A,,Clear,10,2013-02-23 12:53:00
7:53 AM,30.0,24.1,79,30.07,10.0,NNE,3.5,-,N/A,,Clear,20,2013-02-23 13:53:00
8:53 AM,32.0,21.9,66,30.06,10.0,NNE,8.1,-,N/A,,Clear,20,2013-02-23 14:53:00
9:53 AM,34.0,23.0,64,30.06,10.0,ENE,3.5,-,N/A,,Clear,60,2013-02-23 15:53:00
10:53 AM,37.0,23.0,57,30.05,10.0,Calm,Calm,-,N/A,,Clear,0,2013-02-23 16:53:00
11:53 AM,37.9,25.0,60,30.04,10.0,Variable,5.8,-,N/A,,Clear,0,2013-02-23 17:53:00
12:53 PM,41.0,24.1,51,30.01,10.0,West,4.6,-,N/A,,Clear,260,2013-02-23 18:53:00
1:53 PM,42.1,24.1,49,29.98,10.0,NNW,8.1,-,N/A,,Clear,330,2013-02-23 19:53:00
2:53 PM,43.0,25.0,49,29.98,10.0,NNW,5.8,-,N/A,,Clear,330,2013-02-23 20:53:00
3:53 PM,43.0,24.1,47,29.98,10.0,WNW,3.5,-,N/A,,Clear,300,2013-02-23 21:53:00
4:53 PM,42.1,24.1,49,29.98,10.0,West,3.5,-,N/A,,Clear,270,2013-02-23 22:53:00
5:53 PM,39.0,25.0,57,29.99,10.0,West,3.5,-,N/A,,Clear,280,2013-02-23 23:53:00
6:53 PM,37.0,25.0,62,30.01,10.0,WSW,3.5,-,N/A,,Clear,240,2013-02-24 00:53:00
7:53 PM,32.0,27.0,82,30.01,10.0,Calm,Calm,-,N/A,,Clear,0,2013-02-24 01:53:00
8:53 PM,33.8,24.8,70,30.02,10.0,Calm,Calm,-,N/A,,Clear,0,2013-02-24 02:53:00
9:53 PM,34.0,24.1,67,30.03,10.0,North,3.5,-,N/A,,Clear,350,2013-02-24 03:53:00
10:53 PM,32.0,24.1,73,30.03,10.0,Calm,Calm,-,N/A,,Clear,0,2013-02-24 04:53:00
11:53 PM,28.9,24.1,82,30.03,10.0,Calm,Calm,-,N/A,,Clear,0,2013-02-24 05:53:00